Location: Marne
(34.0056°N, 117.9064°W)
Time: 04:51:15
(UTC+00:00)

Cosmos 2084 Rocket - Pass Details

Date: 18 January 2020
Orbit: 570 x 611 km, 62.8° (Epoch: 16 February)

Event Time Altitude Azimuth Distance (km) Brightness Sun altitude
Rises 02:10:06 0° 325° (NW) 2,875 7.2 -13.0°
Reaches altitude 10° 02:12:23 10° 323° (NW) 1,966 6.4 -13.5°
Maximum altitude 02:16:48 66° 241° (WSW) 665 3.9 -14.4°
Drops below altitude 10° 02:21:10 10° 160° (SSE) 1,944 6.1 -15.2°
Sets 02:23:25 0° 157° (SSE) 2,839 6.9 -15.7°
